sat.trackr.live / text

‹ back to catalog

STARLINK-32773

NORAD 62571 · 2025-006T

PAYLOAD ACTIVE UNKNOWN

§ Identity

Operator
Country
US
Launch date
2025-01-10
Launch site
AFETR
Launch vehicle
Mass (kg)
RCS (m²)

Purposes: comms

External: N2YO · Heavens-Above · Gunter

§ Orbital elements

Epoch: 2026-05-24T22:12:20.550240Z

Period
94.27 min
Inclination
42.9997°
Eccentricity
0.0001152
Mean motion
15.27589505 rev/d
Perigee alt
482.2 km
Apogee alt
483.8 km
Semi-major
6,861.2 km
B*
5.5521e-4
RAAN
221.8878°
Arg perigee
282.3166°
Mean anomaly
77.7557°
Rev number
7,652

§ Raw data

STARLINK-327731 62571U 25006T   26144.92523785  .00015052  00000+0  55521-3 0  99952 62571  42.9997 221.8878 0001152 282.3166  77.7557 15.27589505 76521

JSON: /api/v1/satellites/62571 · /tle

For live sub-satellite position, see the globe view (requires WebGL).

§ Visibility from observer

Set your observer location to see the next 7 days of passes ≥ 10°. The values pass through the URL so the page stays shareable.

No JS? Fill the form by hand. The geolocation button needs JavaScript.